Weather Roundup
Issued by NWS Chicago, IL

Home | Current Version | Previous Version | Graphics & Text | Print | Product List | Glossary On
Versions: 1 2 3 4 5 6 7 8 9 10 11 12 13 14 15 16 17 18 19 20 21 22 23 24 25 26 27 28 29 30 31 32 33 34 35 36 37 38 39 40 41 42 43 44 45 46 47 48 49 50
000
NZUS59 KLOT 290409
HRRLOT

CHICAGO AREA WEATHER ROUNDUP
NATIONAL WEATHER SERVICE CHICAGO/ROMEOVILLE IL
1100 PM CDT SAT MAY 28 2016

NOTE: "FAIR" INDICATES FEW OR NO CLOUDS BELOW 12,000 FEET WITH NO
SIGNIFICANT WEATHER AND/OR OBSTRUCTIONS TO VISIBILITY.

* THESE STATIONS ARE NOT UNDER NWS QUALITY CONTROL. THEY ALSO MAY NOT
  REPORT WEATHER SUCH AS PRECIPITATION OR FOG.

ILZ005-006-012>014-019>023-290500-
NORTHEAST ILLINOIS

CITY           SKY/WX    TMP DP  RH WIND       PRES   REMARKS
OHARE          CLOUDY    65  63  93 NW14      29.96R THUNDER FOG
MIDWAY         MOCLDY    77  64  64 SW12      29.95R
AURORA         CLOUDY    67  63  87 SE7       29.95S
LANSING*       MOCLDY    74  64  72 S15       29.96S
JOLIET*        CLOUDY    73  57  58 S7        29.96R
WAUKEGAN       CLOUDY    64  61  90 SW21G29   29.96R THUNDER
DUPAGE AIRPORT CLOUDY    65  62  90 SE3       29.95F
WHEELING       LGT RAIN  66  63  90 VRB3      29.96F
KANKAKEE*      PTCLDY    68  59  73 S10       29.99S
MORRIS*        LGT RAIN  69  57  66 SW12      29.95R
LEWIS AIRPORT* MOCLDY    73  56  55 SW9       29.96R
$$

WIZ051-052-058>065-066-070>072-290500-
SOUTHEAST WISCONSIN

CITY           SKY/WX    TMP DP  RH WIND       PRES   REMARKS
MILWAUKEE      LGT RAIN  67  63  87 SW13      29.94S
KENOSHA*       LGT RAIN  65  62  90 SW8       29.96R
RACINE*        LGT RAIN  66  62  87 SW9       29.96S
BURLINGTON     RAIN      64  63  97 S6        29.95R
WAUKESHA       RAIN      63  61  94 S8        29.95R
WEST BEND      LGT RAIN  63  61  94 S5        29.93S
$$

INZ001>003-010>013-019-020-290500-
NORTHWEST INDIANA

CITY           SKY/WX    TMP DP  RH WIND       PRES   REMARKS
GARY*          PTCLDY    77  71  82 S9G17     29.96S
MICHIGAN CITY* NOT AVBL
RENSSELAER*    NOT AVBL
VALPARAISO     MOCLDY    74  63  68 S10       29.99R
$$

LMZ740>746-290500-
SOUTHERN LAKE MICHIGAN

STATION/POSITION TIME  SKY/WX   TEMP WIND        PRES    VSBY
                                AIR  DIR/SP/G
                 (UTC)          (F)  (DEG/KT/KT) (MB)    (MI)
HARRISON CRIB    0300            76  200/ 18/ 19   N/A
BURNHAM HARBOR   0400            76  200/ 10/ 17   N/A
CALUMET HARBOR   0300            77              1013.4R
BURNS HARBOR     0300            76  180/ 11/ 18 1014.6R
MICHIGAN CITY    0300            76  160/ 17/ 19   N/A
$$

ABBREVIATIONS USED IN REMARKS
   TC - TEMPERATURE IN CELSIUS
  WCI - WIND CHILL INDEX
   HX - HEAT INDEX
  VSB - VISIBILITY
$$



USA.gov is the U.S. government's official web portal to all federal, state and local government web resources and services.